Regional Weather Roundup
Issued by NWS Albany, NY

Home | Current Version | Previous Version | Graphics & Text | Print | Product List | Glossary Off
Versions: 1 2 3 4 5 6 7 8 9 10 11 12 13 14 15 16 17 18 19 20 21 22 23 24 25 26 27 28 29 30 31 32 33 34 35 36 37 38 39 40 41 42 43 44 45 46 47 48 49 50

000
ASUS41 KALY 260410
RWRALY

NEW YORK STATE HOURLY WEATHER ROUNDUP
NATIONAL WEATHER SERVICE ALBANY NY
1200 AM EDT SAT JUL 26 2014

NOTE: "FAIR" INDICATES FEW OR NO CLOUDS BELOW 12,000 FEET WITH NO
SIGNIFICANT WEATHER AND/OR NO OBSTRUCTIONS TO VISIBILITY.

NYZ032-033-038>043-046>054-057>066-NYZ062>081-260500-
EAST


CITY           SKY/WX    TMP DP  RH WIND       PRES   REMARKS
ALBANY         PTCLDY    65  59  81 CALM      29.98S
GLENS FALLS    CLEAR     60  54  80 CALM      29.97S
POUGHKEEPSIE   CLEAR     64  59  83 CALM      29.99S
NEWBURGH       CLEAR     66  57  72 CALM      30.01F
MONTGOMERY     CLEAR     60  57  89 CALM      30.00S
WHITE PLAINS   CLEAR     65  60  84 CALM      30.01S
ISLIP          PTCLDY    71  64  78 SW6       30.00F
NEW YORK CITY  PTCLDY    74  61  63 S6        30.00S
CENTRAL PARK   CLEAR     73  59  61 VRB3      30.03F
$$

NYZ005>009-017-018-044>046-055-056-260500-
CENTRAL


CITY           SKY/WX    TMP DP  RH WIND       PRES   REMARKS
FULTON         CLEAR     57  54  89 CALM      29.98R
SYRACUSE       MOCLDY    63  57  81 W5        29.97R
ROME           CLEAR     59  55  87 SE5       29.98S
ELMIRA         CLEAR     59  57  93 SW3       30.00R
BINGHAMTON     PTCLDY    63  53  70 SW6       30.01F
MONTICELLO     CLEAR     61  55  82 CALM      30.04S
$$

NYZ026>034-041>043-260500-
NORTH


CITY           SKY/WX    TMP DP  RH WIND       PRES   REMARKS
WATERTOWN      CLEAR     62  51  67 S3        29.95S
FORT DRUM      NOT AVBL
MASSENA        PTCLDY    61  54  77 S5        29.93S
SARANAC LAKE   PTCLDY    49  48  97 CALM      29.98S
PLATTSBURGH    CLEAR     67  51  56 S6        29.93R
$$

NYZ001>004-010>016-019>021-260500-
WEST


CITY           SKY/WX    TMP DP  RH WIND       PRES   REMARKS
NIAGARA FALLS  PTCLDY    63  56  78 SW7       29.97S
BUFFALO        MOCLDY    64  56  75 S7        29.98S
DUNKIRK        MOCLDY    61  55  81 S5        29.99F
JAMESTOWN      PTCLDY    55  52  88 S3        30.03S
WELLSVILLE     PTCLDY    59  50  72 CALM      30.05F
ROCHESTER      PTCLDY    61  53  75 SW6       29.98S
PENN YAN       PTCLDY    65  57  75 S5        30.00S
$$

             KEY
       WCI = WIND CHILL INDEX
       VSB = VISIBILITY
       HX  = HEAT INDEX
$$


USA.gov is the U.S. government's official web portal to all federal, state and local government web resources and services.